period_start,C,m1,H,J0,J1,J2,J3,J4,J5,JA,JB,JC,JD,JJ,JK,JN,#
2016-01-09 00:03:28,0.07,2.65,0.00,14.27,18.69,22.61,15.44,56.00,1037.18,2065.00,2383.55,2638.22,2834.02,599.70,626.24,55.33,0000 0000 0000 0000 000000
2016-01-09 00:08:30,0.07,2.66,0.00,14.29,18.70,22.59,15.44,55.84,1037.34,2065.00,2382.07,2637.66,2833.18,599.75,626.37,55.38,0000 0000 0000 0000 000000
2016-01-09 00:13:31,0.07,2.66,0.00,14.27,18.70,22.64,15.50,55.77,1037.40,2065.00,2380.75,2636.92,2832.48,600.41,627.05,55.44,0000 0000 0000 0000 000000
2016-01-09 00:18:32,0.08,2.66,0.00,14.28,18.71,22.57,15.43,55.72,1037.45,2065.00,2379.55,2636.09,2831.58,599.84,626.49,55.49,0000 0000 0000 0000 000000
2016-01-09 00:23:33,0.07,2.67,0.00,14.28,18.72,22.60,15.47,55.96,1037.61,2065.00,2378.15,2635.27,2830.74,600.29,627.06,55.54,0000 0000 0000 0000 000000
2016-01-09 00:28:34,0.07,2.67,0.00,14.30,18.72,22.62,15.44,55.99,1037.61,2065.00,2376.80,2634.55,2829.94,599.86,626.59,55.59,0000 0000 0000 0000 000000
2016-01-09 00:33:35,0.06,2.68,0.00,14.31,18.72,22.59,15.44,56.23,1037.61,2065.00,2375.43,2633.86,2829.13,599.94,626.75,55.64,0000 0000 0000 0000 000000
2016-01-09 00:38:37,0.10,2.68,0.00,14.30,18.72,22.63,15.36,55.98,1037.61,2065.00,2374.57,2632.80,2827.80,599.63,626.43,55.69,0000 0000 0000 0000 000000
2016-01-09 00:43:38,0.15,2.69,0.00,14.30,18.73,22.58,15.48,55.83,1037.61,2065.00,2372.19,2631.38,2826.20,600.35,627.10,55.74,0000 0000 0000 0000 000000
2016-01-09 00:48:39,0.20,2.70,0.00,14.29,18.74,22.61,15.45,55.97,1037.58,2065.00,2369.17,2629.36,2824.09,599.90,626.67,55.79,0000 0000 0000 0000 000000
2016-01-09 00:53:41,0.19,2.71,0.00,14.29,18.74,22.62,15.44,55.96,1037.45,2065.00,2366.34,2627.24,2821.70,600.04,626.72,55.84,0000 0000 0000 0000 000000
2016-01-09 00:58:42,0.13,2.71,0.00,14.28,18.74,22.62,15.43,56.25,1037.41,2064.99,2364.18,2625.70,2819.81,599.87,626.53,55.89,0000 0000 0000 0000 000000
2016-01-09 01:03:44,0.15,2.72,0.00,14.30,18.74,22.61,15.50,56.23,1037.54,2064.99,2361.86,2624.15,2818.17,600.09,626.80,55.94,0000 0000 0000 0000 000000
2016-01-09 01:08:45,0.14,2.73,0.00,14.32,18.74,22.65,15.49,55.99,1037.48,2064.99,2359.56,2622.73,2816.53,600.35,627.03,55.99,0000 0000 0000 0000 000000
2016-01-09 01:13:46,0.17,2.74,0.00,14.31,18.74,22.61,15.42,56.13,1037.37,2064.98,2357.05,2621.09,2814.81,599.72,626.36,56.04,0000 0000 0000 0000 000000
2016-01-09 01:18:48,0.19,2.75,0.00,14.30,18.74,22.62,15.44,55.98,1037.33,2064.98,2354.11,2619.22,2812.79,599.86,626.43,56.09,0000 0000 0000 0000 000000
2016-01-09 01:23:49,0.17,2.76,0.00,14.33,18.73,22.66,15.52,56.04,1037.22,2064.99,2351.26,2617.32,2810.77,599.96,626.34,56.14,0000 0000 0000 0000 000000
2016-01-09 01:28:50,0.16,2.76,0.00,14.34,18.72,22.59,15.46,56.14,1037.16,2064.98,2348.84,2615.61,2808.85,599.94,626.32,56.19,0000 0000 0000 0000 000000
2016-01-09 01:33:52,0.16,2.77,0.00,14.33,18.72,22.63,15.44,56.21,1037.16,2064.99,2346.39,2613.84,2806.87,600.07,626.45,56.24,0000 0000 0000 0000 000000
2016-01-09 01:38:53,0.12,2.78,0.00,14.32,18.72,22.62,15.44,56.19,1037.14,2064.99,2344.17,2612.40,2805.36,599.79,626.20,56.30,0000 0000 0000 0000 000000
2016-01-09 01:43:54,0.10,2.79,0.00,14.34,18.71,22.54,15.49,56.15,1037.13,2064.99,2342.30,2611.29,2804.14,600.31,626.71,56.35,0000 0000 0000 0000 000000
2016-01-09 01:48:55,0.13,2.79,0.00,14.34,18.70,22.61,15.44,56.20,1037.13,2064.99,2340.39,2610.06,2802.89,599.75,625.98,56.40,0000 0000 0000 0000 000000
2016-01-09 01:53:56,0.15,2.80,0.00,14.34,18.69,22.57,15.54,56.33,1037.15,2064.99,2338.00,2608.59,2801.38,600.55,627.07,56.45,0000 0000 0000 0000 000000
2016-01-09 01:58:58,0.11,2.81,0.00,14.31,18.69,22.55,15.50,56.00,1037.14,2064.99,2336.13,2607.23,2799.72,600.49,626.96,56.50,0000 0000 0000 0000 000000
2016-01-09 02:03:59,0.07,2.81,0.00,14.30,18.69,22.59,15.49,56.13,1037.13,2064.99,2335.09,2606.28,2798.78,600.19,626.67,56.55,0000 0000 0000 0000 000000
2016-01-09 02:09:00,0.08,2.81,0.00,14.32,18.69,22.56,15.39,55.76,1037.12,2064.99,2333.68,2605.71,2797.99,600.01,626.34,56.60,0000 0000 0000 0000 000000
2016-01-09 02:14:02,0.08,2.82,0.00,14.30,18.69,22.59,15.51,56.11,1037.11,2064.99,2332.36,2604.75,2797.00,600.10,626.53,56.65,0000 0000 0000 0000 000000
2016-01-09 02:19:03,0.10,2.82,0.00,14.33,18.70,22.55,15.49,56.29,1037.12,2064.99,2330.85,2603.76,2795.79,600.19,626.60,56.70,0000 0000 0000 0000 000000
2016-01-09 02:24:05,0.12,2.83,0.00,14.33,18.71,22.57,15.51,56.33,1037.10,2064.99,2328.90,2602.54,2794.49,599.96,626.33,56.75,0000 0000 0000 0000 000000
2016-01-09 02:29:06,0.11,2.84,0.00,14.33,18.72,22.61,15.47,56.12,1037.12,2064.99,2327.01,2601.27,2793.14,600.50,626.91,56.80,0000 0000 0000 0000 000000
2016-01-09 02:34:07,0.09,2.84,0.00,14.33,18.72,22.57,15.48,56.21,1037.10,2065.00,2325.58,2600.38,2792.11,600.11,626.49,56.85,0000 0000 0000 0000 000000
2016-01-09 02:39:09,0.05,2.84,0.00,14.33,18.72,22.60,15.49,56.20,1037.11,2065.00,2324.55,2599.92,2791.42,600.07,626.55,56.90,0000 0000 0000 0000 000000
2016-01-09 02:44:10,0.05,2.85,0.00,14.34,18.72,22.61,15.41,56.16,1037.10,2065.00,2323.56,2599.16,2790.98,600.16,626.53,56.95,0000 0000 0000 0000 000000
2016-01-09 02:49:12,0.04,2.85,0.00,14.36,18.73,22.64,15.47,56.23,1037.05,2065.00,2322.59,2598.94,2790.27,600.12,626.45,57.00,0000 0000 0000 0000 000000
2016-01-09 02:54:13,0.06,2.85,0.00,14.33,18.74,22.61,15.49,56.25,1036.88,2065.00,2321.57,2598.18,2789.96,600.11,626.36,57.05,0000 0000 0000 0000 000000
2016-01-09 02:59:14,0.05,2.86,0.00,14.33,18.74,22.64,15.53,56.34,1036.65,2065.00,2320.53,2597.85,2789.21,600.24,626.33,57.10,0000 0000 0000 0000 000000
2016-01-09 03:04:15,0.05,2.86,0.00,14.35,18.74,22.64,15.42,56.39,1036.64,2064.99,2319.71,2597.08,2788.66,599.70,625.77,57.15,0000 0000 0000 0000 000000
2016-01-09 03:09:17,0.03,2.86,0.00,14.33,18.76,22.63,15.52,56.39,1036.64,2064.99,2318.89,2596.88,2788.01,599.79,626.00,57.21,0000 0000 0000 0000 000000
2016-01-09 03:14:18,0.07,2.86,0.00,14.33,18.77,22.64,15.45,56.40,1036.64,2064.99,2317.90,2596.06,2787.23,599.99,626.10,57.26,0000 0000 0000 0000 000000
2016-01-09 03:19:20,0.06,2.87,0.00,14.34,18.77,22.66,15.49,56.42,1036.64,2064.98,2316.90,2595.61,2786.67,600.00,626.05,57.31,0000 0000 0000 0000 000000
2016-01-09 03:24:21,0.05,2.87,0.00,14.36,18.79,22.67,15.43,56.32,1036.64,2064.98,2316.05,2594.99,2785.79,600.13,626.17,57.36,0000 0000 0000 0000 000000
2016-01-09 03:29:22,0.08,2.87,0.00,14.34,18.79,22.66,15.46,56.21,1036.64,2064.97,2314.90,2594.16,2784.96,600.08,626.17,57.41,0000 0000 0000 0000 000000
2016-01-09 03:34:23,0.08,2.88,0.00,14.35,18.79,22.70,15.47,56.41,1036.62,2064.96,2313.50,2593.35,2784.10,599.86,625.90,57.46,0000 0000 0000 0000 000000
2016-01-09 03:39:25,0.07,2.88,0.00,14.36,18.79,22.68,15.42,56.21,1036.63,2064.94,2312.37,2592.60,2783.24,599.82,625.89,57.51,0000 0000 0000 0000 000000
2016-01-09 03:44:26,0.05,2.89,0.00,14.35,18.79,22.72,15.42,56.12,1036.62,2064.88,2311.32,2591.82,2782.15,600.01,626.08,57.56,0000 0000 0000 0000 000000
2016-01-09 03:49:27,0.08,2.89,0.00,14.36,18.79,22.71,15.48,56.21,1036.46,2064.88,2310.13,2591.03,2781.23,600.17,626.13,57.61,0000 0000 0000 0000 000000
2016-01-09 03:54:29,0.07,2.89,0.00,14.36,18.79,22.68,15.34,56.12,1036.48,2064.88,2308.95,2590.40,2780.57,599.90,625.85,57.66,0000 0000 0000 0000 000000
2016-01-09 03:59:30,0.05,2.90,0.00,14.37,18.79,22.67,15.46,56.10,1036.53,2064.84,2307.75,2589.79,2779.90,599.91,625.91,57.71,0000 0000 0000 0000 000000
2016-01-09 04:04:31,0.07,2.90,0.00,14.36,18.77,22.61,15.33,56.10,1036.49,2064.90,2306.72,2589.05,2779.08,600.19,626.07,57.76,0000 0000 0000 0000 000000
2016-01-09 04:09:33,0.07,2.90,0.00,14.36,18.77,22.65,15.42,56.08,1036.57,2064.94,2305.61,2588.63,2778.60,599.85,625.85,57.81,0000 0000 0000 0000 000000
2016-01-09 04:14:34,0.03,2.91,0.00,14.35,18.77,22.65,15.44,55.98,1036.53,2064.91,2304.82,2588.01,2777.96,600.07,626.08,57.86,0000 0000 0000 0000 000000
2016-01-09 04:19:35,0.06,2.91,0.00,14.37,18.76,22.59,15.49,56.04,1036.43,2064.91,2304.03,2587.63,2777.18,600.19,626.05,57.91,0000 0000 0000 0000 000000
2016-01-09 04:24:36,1.40,2.95,0.00,14.38,18.74,22.61,15.41,56.07,1036.47,2064.86,2289.39,2578.44,2767.38,600.17,626.08,57.96,0000 0000 0000 0000 000000
2016-01-09 04:29:38,0.19,2.99,0.00,14.38,18.74,22.60,15.41,55.98,1036.36,2064.92,2279.42,2572.16,2761.05,600.12,625.92,58.01,0000 0000 0000 0000 000000
2016-01-09 04:34:39,0.04,2.99,0.00,14.34,18.74,22.60,15.48,56.27,1036.21,2064.95,2278.19,2571.97,2760.57,600.05,625.88,58.06,0000 0000 0000 0000 000000
2016-01-09 04:39:40,0.06,3.00,0.00,14.38,18.72,22.61,15.52,56.18,1036.29,2064.96,2277.37,2571.19,2760.00,600.35,626.19,58.12,0000 0000 0000 0000 000000
2016-01-09 04:44:42,0.04,3.00,0.00,14.38,18.72,22.60,15.38,56.06,1036.57,2064.97,2276.61,2570.99,2759.40,599.53,625.64,58.17,0000 0000 0000 0000 000000
2016-01-09 04:49:43,0.06,3.00,0.00,14.35,18.72,22.61,15.43,56.17,1036.59,2064.95,2275.55,2570.32,2758.99,599.71,625.71,58.22,0000 0000 0000 0000 000000
2016-01-09 04:54:44,0.04,3.00,0.00,14.35,18.72,22.57,15.42,56.19,1036.62,2064.98,2274.66,2569.99,2758.33,600.09,626.13,58.27,0000 0000 0000 0000 000000
2016-01-09 04:59:45,0.03,3.01,0.00,14.32,18.71,22.57,15.44,56.27,1036.63,2064.98,2273.96,2569.52,2757.94,599.95,625.91,58.32,0000 0000 0000 0000 000000
2016-01-09 05:04:46,0.05,3.01,0.00,14.37,18.70,22.57,15.46,56.14,1036.62,2064.97,2273.10,2569.01,2757.13,599.89,625.84,58.37,0000 0000 0000 0000 000000
2016-01-09 05:09:47,0.06,3.01,0.00,14.36,18.70,22.55,15.42,56.14,1036.63,2064.97,2272.26,2568.50,2756.64,600.09,626.13,58.42,0000 0000 0000 0000 000000
2016-01-09 05:14:48,0.04,3.02,0.00,14.34,18.69,22.57,15.44,56.13,1036.62,2064.98,2271.28,2568.00,2756.03,599.87,625.94,58.47,0000 0000 0000 0000 000000
2016-01-09 05:19:50,0.07,3.02,0.00,14.33,18.69,22.59,15.38,56.04,1036.64,2064.98,2270.49,2567.50,2755.44,599.82,625.95,58.52,0000 0000 0000 0000 000000
2016-01-09 05:24:51,0.04,3.02,0.00,14.34,18.69,22.58,15.49,56.17,1036.64,2064.97,2269.46,2566.99,2754.98,599.95,626.07,58.57,0000 0000 0000 0000 000000
2016-01-09 05:29:52,0.08,3.02,0.00,14.34,18.69,22.60,15.37,56.18,1036.64,2064.96,2268.45,2566.34,2754.29,599.97,626.05,58.62,0000 0000 0000 0000 000000
2016-01-09 05:34:53,0.03,3.03,0.00,14.34,18.69,22.57,15.46,56.24,1036.64,2064.99,2267.54,2565.99,2753.92,599.97,626.06,58.67,0000 0000 0000 0000 000000
2016-01-09 05:39:54,0.08,3.03,0.00,14.32,18.69,22.58,15.43,56.30,1036.64,2064.99,2266.44,2565.22,2753.11,599.99,626.02,58.72,0000 0000 0000 0000 000000
2016-01-09 05:44:55,0.03,3.03,0.00,14.31,18.68,22.57,15.47,56.14,1036.64,2064.99,2265.71,2564.93,2752.52,600.26,626.55,58.77,0000 0000 0000 0000 000000
2016-01-09 05:49:57,0.06,3.04,0.00,14.31,18.68,22.58,15.50,56.13,1036.63,2064.98,2264.73,2564.11,2751.97,600.11,626.25,58.82,0000 0000 0000 0000 000000
2016-01-09 05:54:58,0.05,3.04,0.00,14.30,18.68,22.53,15.43,56.17,1036.63,2064.98,2263.78,2563.85,2751.22,599.88,626.03,58.87,0000 0000 0000 0000 000000
2016-01-09 05:59:59,0.04,3.04,0.00,14.31,18.67,22.52,15.46,56.18,1036.63,2064.98,2262.93,2563.07,2750.95,600.01,626.12,58.92,0000 0000 0000 0000 000000
2016-01-09 06:05:01,0.05,3.04,0.00,14.32,18.67,22.54,15.41,56.27,1036.59,2064.99,2261.92,2562.91,2750.21,600.01,626.12,58.97,0000 0000 0000 0000 000000
2016-01-09 06:10:03,0.06,3.05,0.00,14.30,18.67,22.57,15.43,56.29,1036.58,2064.99,2261.04,2562.09,2749.84,599.87,626.04,59.03,0000 0000 0000 0000 000000
2016-01-09 06:15:04,0.05,3.05,0.00,14.31,18.67,22.56,15.44,56.22,1036.62,2064.99,2260.28,2561.78,2749.05,599.90,626.07,59.08,0000 0000 0000 0000 000000
2016-01-09 06:20:06,0.06,3.05,0.00,14.33,18.67,22.52,15.45,56.38,1036.64,2064.99,2259.18,2561.07,2748.76,599.83,625.84,59.13,0000 0000 0000 0000 000000
2016-01-09 06:25:07,0.05,3.06,0.00,14.33,18.66,22.52,15.42,56.31,1036.64,2064.99,2258.09,2560.86,2748.04,599.93,626.03,59.18,0000 0000 0000 0000 000000
2016-01-09 06:30:09,0.06,3.06,0.00,14.29,18.65,22.50,15.44,56.25,1036.64,2064.99,2256.98,2560.14,2747.87,599.97,626.08,59.23,0000 0000 0000 0000 000000
2016-01-09 06:35:10,0.04,3.06,0.00,14.30,18.65,22.52,15.42,56.39,1036.64,2064.99,2256.06,2559.96,2747.07,600.23,626.47,59.28,0000 0000 0000 0000 000000
2016-01-09 06:40:11,0.06,3.06,0.00,14.31,18.66,22.53,15.46,56.22,1036.63,2064.99,2255.61,2559.26,2746.59,599.41,625.53,59.33,0000 0000 0000 0000 000000
2016-01-09 06:45:13,0.01,3.07,0.00,14.30,18.67,22.57,15.42,56.34,1036.57,2064.99,2254.83,2559.00,2746.01,599.76,625.87,59.38,0000 0000 0000 0000 000000
2016-01-09 06:50:14,0.05,3.07,0.00,14.32,18.66,22.51,15.44,56.42,1036.58,2064.99,2253.88,2558.82,2745.41,599.95,626.04,59.43,0000 0000 0000 0000 000000
2016-01-09 06:55:15,0.05,3.07,0.00,14.31,18.66,22.56,15.37,56.41,1036.54,2064.99,2252.97,2558.09,2745.01,599.84,625.90,59.48,0000 0000 0000 0000 000000
2016-01-09 07:00:16,0.03,3.07,0.00,14.29,18.65,22.56,15.42,56.42,1036.56,2064.99,2252.08,2557.99,2744.89,600.06,626.16,59.53,0000 0000 0000 0000 000000
2016-01-09 07:05:18,0.06,3.08,0.00,14.27,18.65,22.51,15.43,56.41,1036.61,2064.99,2251.31,2557.55,2744.10,599.92,626.13,59.58,0000 0000 0000 0000 000000
2016-01-09 07:10:19,0.03,3.08,0.00,14.27,18.65,22.55,15.46,56.41,1036.59,2064.99,2250.35,2557.02,2743.99,599.97,626.20,59.63,0000 0000 0000 0000 000000
2016-01-09 07:15:20,0.04,3.08,0.00,14.28,18.65,22.53,15.43,56.47,1036.63,2064.99,2249.37,2556.98,2743.60,599.75,625.96,59.68,0000 0000 0000 0000 000000
2016-01-09 07:20:22,0.06,3.08,0.00,14.29,18.65,22.53,15.48,56.50,1036.64,2064.99,2248.58,2556.32,2743.03,599.97,626.08,59.73,0000 0000 0000 0000 000000
2016-01-09 07:25:23,0.03,3.09,0.00,14.26,18.65,22.56,15.44,56.56,1036.64,2064.99,2247.57,2556.00,2742.84,599.93,626.18,59.78,0000 0000 0000 0000 000000
2016-01-09 07:30:24,0.06,3.09,0.00,14.28,18.66,22.58,15.41,56.48,1036.64,2064.99,2246.46,2555.67,2742.10,599.91,626.11,59.83,0000 0000 0000 0000 000000
2016-01-09 07:35:25,0.02,3.09,0.00,14.27,18.66,22.55,15.50,56.57,1036.65,2064.99,2245.96,2555.03,2741.84,600.35,626.66,59.88,0000 0000 0000 0000 000000
2016-01-09 07:40:26,0.05,3.09,0.00,14.26,18.67,22.55,15.43,56.55,1036.65,2064.99,2244.89,2554.97,2741.23,599.77,626.06,59.94,0000 0000 0000 0000 000000
2016-01-09 07:45:28,0.05,3.10,0.00,14.25,18.67,22.52,15.50,56.47,1036.76,2064.99,2244.03,2554.32,2741.00,600.01,626.37,59.99,0000 0000 0000 0000 000000
2016-01-09 07:50:29,0.03,3.10,0.00,14.24,18.67,22.58,15.51,56.48,1036.69,2064.99,2243.76,2554.00,2740.26,599.99,626.32,60.04,0000 0000 0000 0000 000000
2016-01-09 07:55:31,0.03,3.10,0.00,14.23,18.68,22.54,15.53,56.53,1036.66,2064.99,2242.83,2553.92,2740.00,600.13,626.40,60.09,0000 0000 0000 0000 000000
2016-01-09 08:00:32,0.07,1.65,0.00,14.22,18.72,22.62,13.35,45.18,1036.65,2066.07,2937.41,2881.55,3185.59,528.93,550.79,0.02,0000 0000 0000 0000 000002
2016-01-09 08:05:33,0.07,0.00,0.00,14.23,18.72,22.60,15.25,48.77,1036.64,2067.29,3626.21,3205.60,3627.18,599.92,626.23,0.03,0000 0000 0000 0000 000000
2016-01-09 08:10:34,0.07,0.00,0.00,14.23,18.69,22.59,15.31,48.60,1036.63,2067.23,3623.70,3204.82,3625.50,600.02,626.42,0.08,0000 0000 0000 0000 000000
2016-01-09 08:15:35,0.07,0.00,0.00,14.24,18.69,22.56,15.37,48.38,1036.61,2067.07,3621.78,3204.04,3624.13,599.77,626.05,0.13,0000 0000 0000 0000 000000
2016-01-09 08:20:37,0.06,0.01,0.00,14.22,18.69,22.55,15.35,48.26,1036.57,2067.03,3619.84,3203.52,3622.74,599.72,626.00,0.18,0000 0000 0000 0000 000000
2016-01-09 08:25:38,0.06,0.01,0.00,14.22,18.67,22.52,15.36,48.28,1036.40,2067.03,3618.03,3203.01,3621.49,599.88,626.09,0.23,0000 0000 0000 0000 000000
2016-01-09 08:30:40,0.06,0.01,0.00,14.23,18.67,22.54,15.37,48.33,1036.18,2067.01,3616.28,3202.41,3620.40,599.86,625.96,0.29,0000 0000 0000 0000 000000
2016-01-09 08:35:41,0.05,0.01,0.00,14.23,18.65,22.51,15.23,48.26,1036.15,2067.05,3614.42,3202.00,3619.40,599.97,625.99,0.34,0000 0000 0000 0000 000000
2016-01-09 08:40:42,0.07,0.02,0.00,14.20,18.64,22.54,15.36,48.37,1036.15,2067.14,3612.65,3201.33,3618.29,600.18,626.35,0.39,0000 0000 0000 0000 000000
2016-01-09 08:45:43,0.05,0.02,0.00,14.19,18.63,22.54,15.26,48.25,1036.15,2067.24,3610.89,3200.94,3617.11,600.21,626.39,0.44,0000 0000 0000 0000 000000
2016-01-09 08:50:45,0.08,0.02,0.00,14.20,18.62,22.50,15.35,48.33,1036.15,2067.48,3609.27,3200.17,3615.96,600.30,626.49,0.49,0000 0000 0000 0000 000000
2016-01-09 08:55:46,0.07,0.03,0.00,14.18,18.62,22.49,15.30,48.18,1036.15,2067.71,3607.52,3199.81,3614.75,599.87,626.08,0.54,0000 0000 0000 0000 000000
2016-01-09 09:00:47,0.06,0.03,0.00,14.18,18.62,22.50,15.34,48.10,1036.15,2067.84,3606.06,3199.05,3613.21,600.17,626.35,0.59,0000 0000 0000 0000 000000
2016-01-09 09:05:49,0.04,0.03,0.00,14.17,18.62,22.51,15.39,48.17,1036.16,2067.75,3604.38,3198.87,3612.10,600.19,626.36,0.64,0000 0000 0000 0000 000000
2016-01-09 09:10:50,0.07,0.04,0.00,14.17,18.61,22.47,15.38,48.10,1036.16,2067.86,3602.70,3198.06,3610.89,600.26,626.47,0.69,0000 0000 0000 0000 000000
2016-01-09 09:15:52,0.06,0.04,0.00,14.17,18.60,22.49,15.29,48.27,1036.16,2067.81,3600.97,3197.56,3609.65,599.94,626.11,0.74,0000 0000 0000 0000 000000
2016-01-09 09:20:53,0.05,0.04,0.00,14.16,18.59,22.46,15.33,48.33,1036.17,2067.86,3599.39,3196.99,3608.52,599.77,625.98,0.79,0000 0000 0000 0000 000000
2016-01-09 09:25:53,0.05,0.05,0.00,14.16,18.59,22.47,15.32,48.42,1036.16,2067.79,3597.64,3196.24,3607.24,600.23,626.44,0.84,0000 0000 0000 0000 000000
2016-01-09 09:30:55,0.05,0.05,0.00,14.16,18.59,22.49,15.33,48.47,1036.15,2067.86,3595.95,3195.91,3606.03,600.00,626.19,0.89,0000 0000 0000 0000 000000
2016-01-09 09:35:55,0.06,0.05,0.00,14.14,18.59,22.47,15.45,48.45,1036.15,2067.94,3594.35,3195.12,3604.80,600.32,626.59,0.94,0000 0000 0000 0000 000000
2016-01-09 09:40:57,0.06,0.05,0.00,14.14,18.59,22.45,15.30,48.38,1036.15,2067.91,3592.58,3194.60,3603.58,600.02,626.30,0.99,0000 0000 0000 0000 000000
2016-01-09 09:45:58,0.04,0.06,0.00,14.13,18.60,22.55,15.36,48.56,1036.16,2067.94,3590.76,3193.96,3602.35,600.05,626.42,1.04,0000 0000 0000 0000 000000
2016-01-09 09:51:00,0.07,0.06,0.00,14.15,18.60,22.48,15.35,48.44,1036.17,2067.94,3588.83,3193.14,3600.95,600.09,626.27,1.09,0000 0000 0000 0000 000000
2016-01-09 09:56:01,0.06,0.06,0.00,14.13,18.59,22.49,15.31,48.53,1036.15,2067.93,3587.19,3192.63,3599.62,599.74,626.01,1.14,0000 0000 0000 0000 000000
2016-01-09 10:01:02,0.05,0.07,0.00,14.12,18.59,22.46,15.32,48.41,1036.17,2067.90,3585.48,3192.01,3598.29,600.27,626.56,1.19,0000 0000 0000 0000 000000
2016-01-09 10:06:04,0.06,0.07,0.00,14.13,18.59,22.46,15.42,48.59,1036.16,2067.89,3583.66,3191.42,3597.20,600.22,626.50,1.24,0000 0000 0000 0000 000000
2016-01-09 10:11:06,0.06,0.07,0.00,14.14,18.59,22.45,15.37,48.57,1036.19,2067.92,3582.01,3190.83,3595.94,600.48,626.76,1.29,0000 0000 0000 0000 000000
2016-01-09 10:16:07,0.06,0.08,0.00,14.14,18.59,22.39,15.41,48.42,1036.19,2067.95,3580.46,3190.07,3594.55,600.35,626.62,1.34,0000 0000 0000 0000 000000
2016-01-09 10:21:08,0.06,0.08,0.00,14.12,18.59,22.46,15.32,48.46,1036.37,2067.93,3578.79,3189.46,3593.22,599.64,626.02,1.39,0000 0000 0000 0000 000000
2016-01-09 10:26:09,0.04,0.08,0.00,14.12,18.59,22.48,15.37,48.45,1036.52,2067.86,3576.93,3188.91,3591.84,600.09,626.55,1.44,0000 0000 0000 0000 000000
2016-01-09 10:31:11,0.06,0.09,0.00,14.11,18.57,22.42,15.37,48.52,1036.23,2067.91,3575.32,3188.10,3590.49,599.98,626.45,1.49,0000 0000 0000 0000 000000
2016-01-09 10:36:12,0.07,0.09,0.00,14.12,18.57,22.46,15.33,48.28,1036.28,2067.94,3573.48,3187.60,3589.22,599.84,626.18,1.54,0000 0000 0000 0000 000000
2016-01-09 10:41:13,0.05,0.09,0.00,14.11,18.57,22.45,15.35,48.43,1036.48,2067.94,3571.49,3186.94,3588.06,600.21,626.68,1.59,0000 0000 0000 0000 000000
2016-01-09 10:46:15,0.07,0.10,0.00,14.11,18.56,22.47,15.26,48.41,1036.54,2067.95,3569.61,3186.10,3586.67,599.94,626.44,1.64,0000 0000 0000 0000 000000
2016-01-09 10:51:16,0.08,0.10,0.00,14.09,18.54,22.41,15.30,48.33,1036.25,2067.98,3567.58,3185.22,3585.00,600.02,626.39,1.69,0000 0000 0000 0000 000000
2016-01-09 10:56:17,0.08,0.10,0.00,14.09,18.54,22.39,15.37,48.48,1036.20,2067.97,3564.97,3184.13,3583.46,599.98,626.34,1.74,0000 0000 0000 0000 000000
2016-01-09 11:01:18,0.08,0.11,0.00,14.10,18.53,22.38,15.33,48.64,1036.17,2067.98,3562.73,3183.22,3581.98,599.55,625.84,1.79,0000 0000 0000 0000 000000
2016-01-09 11:06:20,0.07,0.11,0.00,14.12,18.52,22.39,15.40,48.47,1036.15,2067.98,3560.61,3182.33,3580.59,600.26,626.54,1.84,0000 0000 0000 0000 000000
2016-01-09 11:11:21,0.05,0.11,0.00,14.13,18.52,22.38,15.30,48.36,1036.15,2067.98,3558.84,3181.81,3579.36,600.04,626.33,1.89,0000 0000 0000 0000 000000
2016-01-09 11:16:22,0.07,0.12,0.00,14.10,18.50,22.35,15.28,48.46,1036.16,2067.99,3556.83,3180.95,3577.99,600.05,626.37,1.94,0000 0000 0000 0000 000000
2016-01-09 11:21:24,0.07,0.12,0.00,14.05,18.49,22.40,15.35,48.53,1036.16,2067.99,3554.83,3180.07,3576.60,600.13,626.57,1.99,0000 0000 0000 0000 000000
2016-01-09 11:26:25,0.06,0.13,0.00,14.07,18.49,22.38,15.38,48.52,1036.16,2067.99,3552.97,3179.24,3575.17,600.21,626.55,2.04,0000 0000 0000 0000 000000
2016-01-09 11:31:26,0.06,0.13,0.00,14.08,18.49,22.38,15.40,48.48,1036.25,2067.99,3551.62,3178.74,3573.54,599.90,626.24,2.09,0000 0000 0000 0000 000000
2016-01-09 11:36:28,0.05,0.13,0.00,14.07,18.49,22.41,15.38,48.43,1036.28,2067.99,3549.76,3178.04,3572.54,600.09,626.53,2.14,0000 0000 0000 0000 000000
2016-01-09 11:41:29,0.06,0.13,0.00,14.08,18.49,22.41,15.35,48.58,1036.19,2067.99,3547.83,3177.42,3571.42,600.20,626.49,2.19,0000 0000 0000 0000 000000
2016-01-09 11:46:30,0.09,0.14,0.00,14.07,18.49,22.39,15.31,48.66,1036.18,2067.99,3545.40,3176.45,3569.75,600.02,626.47,2.24,0000 0000 0000 0000 000000
2016-01-09 11:51:32,0.09,0.14,0.00,14.06,18.49,22.37,15.37,48.66,1036.39,2067.99,3542.70,3175.18,3567.82,600.16,626.70,2.29,0000 0000 0000 0000 000000
2016-01-09 11:56:33,0.06,0.15,0.00,14.07,18.49,22.35,15.27,48.66,1036.44,2067.99,3540.90,3174.42,3566.48,600.22,626.85,2.34,0000 0000 0000 0000 000000
2016-01-09 12:01:34,0.04,0.15,0.00,14.07,18.48,22.34,15.38,48.84,1036.54,2068.00,3539.07,3173.93,3565.37,600.02,626.58,2.39,0000 0000 0000 0000 000000
2016-01-09 12:06:36,0.05,0.15,0.00,14.08,18.47,22.32,15.33,48.73,1036.39,2068.00,3537.40,3173.13,3564.23,599.91,626.31,2.44,0000 0000 0000 0000 000000
2016-01-09 12:11:37,0.05,0.16,0.00,14.07,18.48,22.36,15.38,48.57,1036.16,2068.00,3535.81,3172.72,3562.96,600.03,626.38,2.49,0000 0000 0000 0000 000000
2016-01-09 12:16:38,0.07,0.16,0.00,14.07,18.48,22.37,15.39,48.53,1036.15,2068.00,3534.02,3171.87,3561.53,600.12,626.62,2.54,0000 0000 0000 0000 000000
2016-01-09 12:21:39,0.10,0.16,0.00,14.04,18.49,22.38,15.37,48.58,1036.15,2068.00,3531.39,3170.74,3559.74,600.34,626.68,2.60,0000 0000 0000 0000 000000
2016-01-09 12:26:41,0.10,0.17,0.00,14.04,18.49,22.36,15.37,48.63,1036.12,2068.00,3528.57,3169.38,3557.75,599.97,626.31,2.65,0000 0000 0000 0000 000000
2016-01-09 12:31:42,0.07,0.17,0.00,14.06,18.49,22.35,15.33,48.50,1036.02,2068.00,3526.43,3168.57,3556.27,600.32,626.65,2.70,0000 0000 0000 0000 000000
2016-01-09 12:36:43,0.05,0.18,0.00,14.06,18.49,22.35,15.32,48.65,1035.81,2068.00,3524.53,3167.91,3555.00,600.07,626.39,2.75,0000 0000 0000 0000 000000
2016-01-09 12:41:44,0.07,0.18,0.00,14.04,18.49,22.35,15.37,48.57,1035.71,2068.00,3522.64,3167.04,3553.60,599.98,626.20,2.80,0000 0000 0000 0000 000000
2016-01-09 12:46:46,0.06,0.18,0.00,14.04,18.49,22.34,15.30,48.54,1035.68,2068.00,3520.81,3166.18,3552.29,599.80,625.93,2.85,0000 0000 0000 0000 000000
2016-01-09 12:51:47,0.05,0.19,0.00,14.04,18.48,22.33,15.30,48.78,1035.68,2068.00,3519.00,3165.67,3551.16,600.12,626.27,2.90,0000 0000 0000 0000 000000
2016-01-09 12:56:48,0.05,0.19,0.00,14.04,18.47,22.34,15.33,48.77,1035.66,2068.00,3517.40,3164.97,3549.66,600.01,626.15,2.95,0000 0000 0000 0000 000000